Location: Guayaquil
(2.1667°S, 79.9000°W)
Time: 16:20:36
(UTC-05:00)

N. Korean satellite - Visible Passes

Search period start: 28 November 2021 00:00
Search period end: 08 December 2021 00:00
Orbit: 447 x 495 km, 97.3° (Epoch: 27 November)

Date Brightness Start Highest point End Pass type
(mag) Time Alt. Az. Time Alt. Az. Time Alt. Az.
28 Nov 9.6 04:32:03 10° ENE 04:34:16 16° ESE 04:36:29 10° SE visible
29 Nov 7.2 05:35:49 10° NNW 05:38:47 30° W 05:41:50 10° SW visible
30 Nov 6.6 05:07:02 10° NNE 05:10:24 75° E 05:13:48 10° S visible
01 Dec 9.1 04:39:19 10° NE 04:42:01 22° ESE 04:44:43 10° SSE visible
03 Dec 6.3 05:14:44 10° N 05:18:06 76° W 05:21:32 10° SSW visible
04 Dec 8.5 04:46:41 10° NE 04:49:41 30° ESE 04:52:45 10° SSE visible
05 Dec 10.1 04:20:49 10° E 04:21:18 10° ESE 04:21:47 10° ESE visible
06 Dec 6.5 05:22:26 10° N 05:25:44 53° W 05:29:07 10° SSW visible
07 Dec 7.8 04:54:04 10° NNE 04:57:18 41° E 05:00:36 10° S visible
